Weather Roundup
Issued by NWS Corpus Christi, TX

Home | Current Version | Previous Version | Text Only | Print | Product List | Glossary On
Versions: 1 2 3 4 5 6 7 8 9 10 11 12 13 14 15 16 17 18 19 20 21 22 23 24 25 26 27 28 29 30 31 32 33 34 35 36 37 38 39 40 41 42 43 44 45 46 47 48 49 50
000
ASUS44 KCRP 201810
HRRCRP

SOUTH TEXAS REGIONAL WEATHER ROUNDUP
NATIONAL WEATHER SERVICE CORPUS CHRISTI TX
100 PM CDT WED AUG 20 2014


TXZ229>244-201900-
...CORPUS CHRISTI AREA OBSERVATIONS...

CITY           SKY/WX    TMP DP  RH WIND       PRES   REMARKS
CORPUS CHRISTI PTSUNNY   93  75  55 S20G31    29.95F HX 104
NAS CORPUS CHR PTSUNNY   92  79  65 SE20G29   29.97F HX 108
ROCKPORT       MOSUNNY   93  76  57 SE15G26   29.97F HX 105
KINGSVILLE NAS PTSUNNY   94  78  60 SE20G25   29.93F HX 110
ALICE          SUNNY     98  72  42 SE16G26   29.93F HX 107
FALFURRIAS     MOSUNNY  101  83  57 S20G25    29.92F HX 129
$$

...VICTORIA AREA OBSERVATIONS...

CITY           SKY/WX    TMP DP  RH WIND       PRES   REMARKS
VICTORIA       MOSUNNY   93  74  53 S14       29.97F HX 103
BEEVILLE       FAIR      94  71  45 S13G22    29.95F HX 101
PLEASANTON     PTSUNNY   95  67  39 SE15      29.96S HX  98
SAN ANTONIO    MOSUNNY   93  67  42 SE17G23   29.98F HX  96
$$

...LAREDO AREA OBSERVATIONS...

CITY           SKY/WX    TMP DP  RH WIND       PRES   REMARKS
LAREDO         SUNNY     96  69  41 S16G24    29.94F HX 101
COTULLA        SUNNY     95  65  37 S12G23    29.94F HX  97
DEL RIO        SUNNY     91  69  48 SE15      29.92F HX  96
MCALLEN        MOSUNNY   97  70  41 SE22G31   29.92F HX 103
HEBBRONVILLE   MOSUNNY   94  65  38 SE21G30   29.94F HX  96
$$

...OTHER TEXAS OBSERVATIONS...

CITY           SKY/WX    TMP DP  RH WIND       PRES   REMARKS
BROWNSVILLE    MOSUNNY   94  75  54 SE24G31   29.95S HX 105
HOUSTON        PTSUNNY   94  75  54 S9        29.99F HX 105
COL. STATION   MOSUNNY   93  73  52 S12       29.98F HX 102
AUSTIN         PTSUNNY   93  68  43 S9        29.97S HX  97
WACO           SUNNY     93  68  43 S22       29.98F HX  97
FORT WORTH     MOSUNNY   93  69  45 S16       29.96F HX  98
WICHITA FALLS  MOSUNNY   94  62  34 S18       29.90F HX  94
LUBBOCK        MOSUNNY   90  64  42 S17       29.96F HX  91
EL PASO        MOSUNNY   82  57  42 NW7G17    30.02F
$$

...MARINE OBSERVATIONS...

STATION/POSITION TIME  SKY/WX   TEMP    WIND        PRES    VSBY  WAVE   SWELL
                                AIR SEA DIR/SP/G                  HT/PER HT/PER
                 (UTC)          (F)     (DEG/KT/KT) (MB)    (MI)  (FT/S) (FT/S)
PORT ARANSAS     1800            84 84  150/  9/ 10 1015.9S
BUOY 90 E PORT A 1800            85 85  170/ 12/ 16 1016.3F         3/ 6   2/ 6
BUOY 45 SE BAFFI 1800            85 86  170/ 17/ 19 1014.5S         4/ 6
BUOY 200 E PT IS 1800            86 86  160/ 10/ 12 1016.4F         3/ 6   2/ 6
BUOY 15 E GALVES NOT AVBL
$$


USA.gov is the U.S. government's official web portal to all federal, state and local government web resources and services.